Regional Weather Roundup
Issued by NWS

Home | Current Version | Previous Version | Graphics & Text | Print | Product List | Glossary On
Versions: 1 2 3 4 5 6 7 8 9 10 11 12 13 14 15 16 17 18 19 20 21 22 23 24 25 26 27 28 29 30 31 32 33 34 35 36 37 38 39 40 41 42 43 44 45 46 47 48 49 50
000
ASUS43 KLMK 272010
RWRKY
KENTUCKY REGIONAL WEATHER ROUNDUP
NATIONAL WEATHER SERVICE LOUISVILLE KY
400 PM EDT MON JUL 27 2015

NOTE "FAIR" INDICATES FEW OR NO CLOUDS BELOW 12,000 FEET
WITH NO SIGNIFICANT WEATHER AND/OR OBSTRUCTIONS TO VISIBILITY.

KYZ001>023-026-027-061>063-070>075-272100-
WESTERN AND SOUTH CENTRAL KENTUCKY

CITY           SKY/WX    TMP DP  RH WIND       PRES   REMARKS
PADUCAH        MOSUNNY   91  78  65 SW7       29.93F HX 106
HENDERSON      PTSUNNY   88  75  66 CALM      29.93S HX  97
OWENSBORO      MOSUNNY   91  77  63 SW5       29.95F HX 104
HOPKINSVILLE   MOSUNNY   91  76  61 SW8       29.95F HX 104
BOWLING GREEN  MOSUNNY   87  76  69 SE5       29.96F HX  97
GLASGOW        PTSUNNY   90  72  56 W6        29.97S HX  97
$$

KYZ024-025-028>034-038-045-046-053-272100-
NORTH CENTRAL KENTUCKY

CITY           SKY/WX    TMP DP  RH WIND       PRES   REMARKS
LOUISVILLE/SDF MOSUNNY   88  73  61 S5        29.95F HX  95
LOUISVILLE/LOU PTSUNNY   87  73  62 S6        29.96S HX  94
FORT KNOX      MOSUNNY   88  74  63 VRB3      29.96F HX  96
$$

KYZ035>037-039>044-047>052-055>060-089>105-272100-
NORTHEAST KENTUCKY

CITY           SKY/WX    TMP DP  RH WIND       PRES   REMARKS
LEXINGTON      MOSUNNY   86  73  65 NW5       29.99F HX  93
COVINGTON      MOSUNNY   87  72  60 E7        29.98S HX  93
FRANKFORT      MOSUNNY   86  71  60 W7        29.97S HX  91
$$

KYZ054-064>069-076>088-106>120-272100-
SOUTHEAST KENTUCKY

CITY           SKY/WX    TMP DP  RH WIND       PRES   REMARKS
JACKSON        PTSUNNY   84  72  67 CALM      30.00F
LONDON         PTSUNNY   86  68  54 VRB3      30.00F
SOMERSET       MOSUNNY   86  70  58 W5        29.99F HX  90
MIDDLESBORO    PTSUNNY   89  73  59 W6        30.00F HX  96
MONTICELLO     MOCLDY    90  73  57 CALM      30.01F HX  98
$$



USA.gov is the U.S. government's official web portal to all federal, state and local government web resources and services.